Regional Weather Roundup
Issued by NWS

Home | Current Version | Previous Version | Graphics & Text | Print | Product List | Glossary On
Versions: 1 2 3 4 5 6 7 8 9 10 11 12 13 14 15 16 17 18 19 20 21 22 23 24 25 26 27
000
ASUS45 KBOU 151607
RWRCO

WEATHER ROUNDUP FOR COLORADO
NATIONAL WEATHER SERVICE DENVER/BOULDER CO
1000 AM MDT TUE AUG 15 2017

NOTE: "FAIR" INDICATES FEW OR NO CLOUDS BELOW 12000 FEET WITH NO
SIGNIFICANT WEATHER AND/OR OBSTRUCTIONS TO VISIBILITY.

COZ001>005-013-030-031-151700-
...NORTHWEST COLORADO...

CITY           SKY/WX    TMP DP  RH WIND       PRES   REMARKS
CRAIG          FAIR      64  51  62 N5        30.04S
HAYDEN         FAIR      63  46  55 CALM      30.07S
MEEKER         PTSUNNY   62  50  64 CALM      30.04S
RABBIT EARS PA FAIR      50  37  62 SW3       30.29S
STEAMBOAT SPGS FAIR      59  49  68 E3        30.06F
WALDEN         FAIR      54  46  76 CALM      30.15S
$$

COZ006>008-011-151700-
...WEST CENTRAL VALLEYS...

CITY           SKY/WX    TMP DP  RH WIND       PRES   REMARKS
GRAND JUNCTION FAIR      77  42  28 SE13      29.93S
MONTROSE       FAIR      75  32  20 VRB5      30.03S
EAGLE          FAIR      59  43  55 CALM      30.10S
RIFLE          FAIR      68  47  46 NE6       30.00S
DELTA          FAIR      77  38  24 E3        30.00S
NUCLA          FAIR      77  25  14 S3        30.07F
$$

COZ017>023-064>068-151700-
...SOUTHWEST COLORADO...

CITY           SKY/WX    TMP DP  RH WIND       PRES   REMARKS
DURANGO        FAIR      69  40  34 W6        30.14S
CORTEZ         FAIR      75  40  28 SW13      30.07S
PAGOSA SPRINGS FAIR      63  40  42 CALM      30.21S
TELLURIDE      FAIR      60  27  28 CALM      30.28S
WOLF CREEK PAS FAIR      45  39  81 SW9G18    30.48S
$$

COZ009-010-012-014-032>034-037-058>063-151700-
...CENTRAL COLORADO...

CITY           SKY/WX    TMP DP  RH WIND       PRES   REMARKS
ASPEN          FAIR      66  44  45 VRB3      30.12S
BUENA VISTA    FAIR      62  42  48 CALM      30.17S
COPPER MTN     FAIR      54  32  43 S6        30.42R
BERTHOUD PASS  PTSUNNY   45  39  81 NW18G28   30.44R
COTTONWOOD PAS FAIR      61  37  41 E7        30.29R
GUNNISON       FAIR      54  43  66 CALM      30.19F
KREMMLING      FAIR      59  48  67 CALM      30.14F
LEADVILLE      FAIR      53  41  63 N3        30.26S
MONARCH PASS   FAIR      50  32  50 W26       30.52S
SALIDA         FAIR      64  45  50 N5        30.20F
SUNLIGHT       PTSUNNY   52  37  58 SW9G18    30.35S
WILKERSON PASS FAIR      52  34  50 SW12G17   30.40R
$$

COZ069>075-151700-
...SAN LUIS VALLEY/SANGRE DE CRISTO MOUNTAINS...

CITY           SKY/WX    TMP DP  RH WIND       PRES   REMARKS
ALAMOSA        FAIR      65  45  48 VRB3      30.16S
DEL NORTE      FAIR      66  42  42 CALM      30.19S
LA VETA PASS   NOT AVBL
SAGUACHE       FAIR      63  46  55 S6        30.19S
$$

COZ035-036-038>040-151700-
...NORTHERN COLORADO FRONT RANGE...

CITY           SKY/WX    TMP DP  RH WIND       PRES   REMARKS
DENVER INTL AP PTSUNNY   70  53  54 SW8       29.96S
DMNS CITY PARK   N/A     73  50  45 N7G17     29.96S
AURORA         PTSUNNY   69  51  51 CALM      29.98S
FRONT RANGE AP FAIR      66  54  63 S3        29.97F
ERIE MUNI ARPT FAIR      72  51  47 N7        29.99R
BOULDER MUN AP FAIR      72  50  46 NE5       29.97R
CENTENNIAL     PTSUNNY   72  47  40 W3        29.98S
BROOMFIELD     FAIR      70  50  49 NE8       29.99R
FORT COLLINS   FAIR      68  57  68 N7        29.97R
LONGMONT       FAIR      72  54  52 NE8       29.98R
$$

COZ041-046-047-076>085-087-088-151700-
...PIKES PEAK/PALMER DIVIDE AND SOUTHERN FOOTHILLS...

CITY           SKY/WX    TMP DP  RH WIND       PRES   REMARKS
COLO. SPRINGS  PTSUNNY   71  58  63 CALM      30.02S
A. F. ACADEMY  PTSUNNY   68  57  66 CALM      30.03R
SCHRIEVER AFB  PTSUNNY   68  56  65 CALM      30.02R
CHEYENNE MTN   CLOUDY    67  44  43 CALM      30.01R
ELLICOTT       FAIR     N/A N/A N/A NW5       30.00R
FALCON         PTSUNNY   69  55  60 W3        30.07R
FORT CARSON    PTSUNNY   69  57  65 N5        29.99R
LIMON          FAIR      68  58  70 N6        29.97R
MONUMENT HILL  CLOUDY    68  52  56 W5        30.08R
CANON CITY     SUNNY     79  52  38 W14       29.95S
WALSENBURG     FAIR      79  46  31 W14G20    30.00S
TRINIDAD       FAIR      78  48  34 W7        29.98S
$$

COZ042>045-048>051-090-091-151700-
...NORTHEAST COLORADO...

CITY           SKY/WX    TMP DP  RH WIND       PRES   REMARKS
GREELEY ARPT   FAIR      71  58  63 CALM      29.96R
AKRON          FAIR      70  58  65 E10       29.93R
BURLINGTON     FAIR      72  63  73 VRB3      29.90S
WRAY           NOT AVBL
YUMA           FAIR      70  50  49 E7        29.91S
STERLING       FAIR      72  64  78 NE5       29.89S
HOLYOKE        PTSUNNY   73  64  73 E8        29.90F
FORT MORGAN    FAIR      73  58  60 E5        29.93F
$$

COZ086-089-092>099-151700-
...SOUTHEAST COLORADO...

CITY           SKY/WX    TMP DP  RH WIND       PRES   REMARKS
PUEBLO         FAIR      75  53  46 W10       29.91F
LA JUNTA       FAIR      76  63  64 W5        29.89R
LAMAR          FAIR      75  60  59 SW8       29.85R
SPRINGFIELD      N/A     77  62  59 S13       29.90S
$$




USA.gov is the U.S. government's official web portal to all federal, state and local government web resources and services.